SCP
2 2 3 2 2 1 1 1 1 1 1 2 2 3 3 3 2 2 3 2 1 0 0 0 0 0 0 0 0 0 0 0 0 0 0 1 1 1
2 2 2 2 2 2 1 1 1 1 1 2 2 2 2 2 2 2 3 3 2 1 0 0 0 0 0 0 0 0 0 0 0 0 0 0 0 0
2 2 2 2 2 2 1 1 1 2 1 2 2 2 2 2 2 3 3 3 2 1 0 0 0 0 0 0 0 0 0 0 0 0 0 0 0 0
1 2 2 2 2 2 2 1 1 1 2 2 2 2 2 2 2 3 3 2 2 1 0 0 0 0 0 0 0 0 0 0 0 0 0 0 0 0
2 2 2 2 2 2 1 1 1 1 2 2 2 2 2 2 2 2 2 2 1 1 0 0 0 0 0 0 0 0 0 0 0 0 0 0 0 0
2 2 2 2 2 2 1 1 1 1 2 2 2 2 2 2 2 1 1 1 1 1 1 1 0 0 0 0 0 0 0 0 0 0 0 0 0 0
2 2 2 1 1 1 1 1 1 1 2 2 2 2 2 2 1 1 1 1 1 1 1 1 1 1 0 0 0 0 0 0 0 0 0 0 0 0
1 1 1 1 1 1 1 1 1 1 1 2 2 2 2 2 1 1 1 1 1 1 1 1 1 1 1 1 0 0 0 0 0 0 0 0 0 0
1 1 1 1 1 1 1 1 1 1 1 1 2 2 2 1 1 1 1 1 1 1 1 1 1 1 1 1 1 0 0 0 0 0 0 0 0 0
2 1 1 1 1 1 2 2 2 1 1 1 1 1 1 1 1 1 1 1 1 1 1 1 1 1 1 1 1 0 0 0 0 0 0 0 0 0
2 2 1 1 1 1 1 2 2 2 1 0 1 1 1 1 1 1 1 1 0 1 1 1 1 1 1 1 1 0 0 0 0 0 0 0 0 0
2 2 2 1 1 1 1 2 3 2 1 1 0 0 0 0 0 0 0 0 0 0 1 1 1 1 1 1 0 0 0 0 0 0 0 0 0 0
2 2 2 1 1 1 1 2 2 2 1 1 0 0 0 0 0 0 0 0 0 0 0 0 0 0 0 0 0 0 0 0 0 0 0 0 0 0
2 2 2 1 1 0 0 1 1 1 1 1 1 0 0 0 0 0 1 1 1 1 0 0 0 0 0 0 0 0 0 0 0 0 0 0 0 0
2 2 1 1 0 0 0 0 0 0 1 1 1 0 0 0 0 1 1 1 1 0 0 0 0 0 0 0 0 0 0 0 0 0 0 0 0 0
2 1 1 0 0 0 0 0 0 0 0 0 0 0 0 0 0 1 1 0 0 0 0 0 0 0 0 0 0 0 0 0 0 0 0 0 0 0
3 3 2 1 1 1 1 1 0 0 0 0 0 0 0 0 0 0 1 0 0 0 0 0 0 0 0 0 0 0 0 0 0 0 0 0 0 0
4 4 4 3 2 1 1 1 1 0 0 0 0 0 0 0 0 0 1 1 1 0 0 0 0 0 0 0 0 0 0 0 0 0 0 0 0 0
4 4 4 4 3 2 1 1 1 0 0 0 0 0 0 0 0 0 0 1 0 0 0 0 0 0 0 0 0 0 0 0 0 0 0 0 0 0
3 4 4 4 4 3 2 1 1 0 0 0 0 0 0 0 0 0 0 0 0 0 0 0 0 0 0 0 0 0 0 0 0 0 0 0 0 0
3 3 3 4 4 3 2 1 1 0 0 0 0 0 0 0 0 0 0 0 0 0 0 0 0 0 0 0 0 0 0 0 0 0 0 0 0 0
2 2 2 3 3 3 2 1 0 0 0 0 0 0 0 0 0 0 0 0 0 0 0 0 0 0 0 0 0 0 0 0 0 0 0 0 0 0
2 2 2 3 3 2 1 1 0 0 0 0 0 0 0 0 0 0 0 0 0 0 0 0 0 0 0 0 0 0 0 0 0 0 0 0 0 0
Wind_Speed
1 1 2 1 1 1 1 2 2 2 2 2 0 1 2 3 4 3 3 4 5 5 4 4 3 3 3 3 4 4 3 3 2 3 3 3 2 2
0 1 1 1 2 1 1 1 1 1 1 1 1 1 2 2 4 3 4 7 6 6 5 5 5 4 4 4 4 4 4 4 4 4 4 4 4 4
2 1 1 1 1 2 1 1 1 1 2 1 0 1 2 2 3 2 3 3 3 6 6 6 5 5 5 5 5 5 5 5 5 5 5 5 4 5
2 2 3 2 2 2 1 1 0 1 2 2 1 1 1 2 3 2 2 3 3 6 7 7 6 6 6 6 6 5 5 5 5 5 5 5 4 5
3 3 3 3 3 2 2 1 1 0 1 2 2 1 1 1 2 2 2 2 3 6 7 7 7 7 8 8 7 6 6 5 5 5 5 5 5 5
3 3 4 3 3 3 2 2 1 0 0 1 1 1 1 1 2 1 1 1 2 3 4 5 6 7 7 7 7 6 6 5 5 5 5 4 4 4
3 3 4 5 6 4 3 3 2 1 0 0 1 1 1 1 1 2 2 2 2 2 2 3 3 3 3 5 5 5 5 5 4 4 4 4 3 3
3 2 2 4 5 5 5 5 3 1 1 1 1 1 1 1 1 2 2 2 2 2 3 3 3 3 3 3 5 6 5 5 4 4 4 3 3 3
3 2 2 3 3 3 3 3 3 3 1 1 1 0 0 1 1 1 1 2 1 3 2 2 2 3 3 5 9 8 7 6 5 5 4 4 3 3
3 3 2 3 4 3 1 2 2 3 2 1 1 1 1 1 0 1 2 1 1 1 1 1 2 2 3 4 9 9 9 8 7 6 5 5 4 4
3 3 3 3 5 6 2 2 2 2 4 4 3 2 2 2 1 1 1 1 1 1 1 0 1 1 2 3 5 10 9 9 8 8 7 6 5 4
2 3 5 4 5 5 2 1 1 1 1 1 1 1 1 1 1 1 1 0 0 1 1 0 0 1 1 2 3 5 5 7 8 8 8 7 6 3
1 2 2 3 4 4 3 1 2 2 1 1 1 1 1 1 1 0 0 0 0 0 1 1 0 0 1 1 2 3 4 4 5 5 8 9 8 6
1 2 2 2 2 3 2 2 3 2 1 1 1 1 1 0 0 0 0 1 1 1 1 1 0 0 0 1 1 2 3 3 4 4 4 7 8 9
2 2 0 2 2 1 0 2 2 1 1 0 0 0 0 0 1 0 1 1 1 0 1 1 0 0 1 1 1 1 1 2 3 3 3 4 5 5
1 1 2 2 2 1 1 0 0 1 1 1 1 0 0 0 0 0 0 0 0 1 0 1 1 1 1 2 1 1 1 1 2 2 3 3 4 4
1 1 1 1 1 0 0 0 0 1 1 1 2 1 1 0 0 0 0 0 1 1 1 1 1 1 2 2 2 2 1 1 1 1 1 2 3 3
1 1 0 0 1 1 1 1 1 1 2 1 1 1 1 1 1 0 0 1 1 1 1 1 1 1 2 1 2 2 2 2 1 2 2 2 3 3
1 1 1 1 1 1 1 1 1 1 2 2 1 2 2 1 1 1 1 1 1 2 2 1 1 1 2 3 3 3 2 2 1 1 2 2 3 3
0 0 1 1 2 2 2 2 2 1 1 2 2 2 2 2 2 1 1 2 2 2 2 1 1 2 3 3 3 3 4 2 2 2 2 2 2 1
0 1 1 1 2 2 2 2 2 1 2 2 2 2 2 2 2 2 2 1 2 2 2 2 2 3 3 2 2 2 3 4 4 3 3 2 2 2
1 1 2 2 2 1 1 1 1 1 2 2 2 2 3 2 3 2 2 2 2 2 2 2 1 2 2 3 3 3 3 3 4 7 7 5 3 3
1 1 1 1 1 1 1 2 2 1 1 2 2 3 3 3 3 2 2 2 2 2 2 1 2 2 3 3 3 3 3 3 2 2 3 7 9 9
Wind_Direction
290 286 276 284 280 255 218 203 206 236 254 230 169 147 132 116 127 131 119 136 138 133 127 125 118 113 110 107 103 99 96 96 94 95 95 106 122 133
300 324 314 313 318 325 264 250 218 204 235 279 201 154 133 120 127 125 122 128 127 128 125 123 121 121 117 109 105 101 99 99 96 94 97 99 98 101
353 4 345 326 324 311 302 258 197 175 205 240 186 135 139 133 130 136 129 128 129 135 130 124 116 110 106 106 104 103 101 100 100 100 100 98 99 103
13 19 3 358 360 342 343 323 246 202 191 204 199 164 154 143 146 157 139 135 130 133 133 121 114 111 109 109 106 100 94 94 95 96 95 96 103 104
26 28 19 17 9 358 357 346 328 295 181 183 191 154 147 148 141 146 126 132 131 126 128 122 123 122 117 114 110 104 100 97 95 92 92 90 95 102
36 37 33 25 13 2 5 11 11 21 212 204 178 150 131 137 141 154 149 153 127 122 119 123 127 127 126 124 123 120 116 110 103 99 95 91 89 94
47 49 53 46 39 31 23 16 11 26 345 226 132 116 120 133 177 187 164 136 105 121 134 136 137 138 144 147 144 142 137 134 132 129 123 117 111 110
61 48 65 56 44 50 46 38 32 28 45 65 95 115 142 162 178 155 151 150 162 167 164 171 161 164 169 163 163 161 161 162 160 155 151 150 145 142
54 40 36 44 38 29 41 49 39 26 37 68 70 6 181 182 170 176 172 173 178 172 170 178 168 170 173 164 167 172 179 179 175 173 174 175 176 175
56 46 49 41 24 7 18 59 53 35 30 68 73 34 32 37 179 197 188 152 130 144 149 165 177 181 171 161 176 181 186 187 189 190 192 193 194 198
79 55 46 43 13 8 22 48 52 47 53 58 77 92 63 38 31 74 109 121 121 136 117 163 183 164 157 167 184 190 191 194 200 202 203 203 203 204
100 87 59 44 17 16 14 20 16 359 41 54 60 67 73 81 98 88 74 89 81 110 145 162 195 139 167 177 177 183 197 207 210 214 217 218 210 208
92 91 67 31 14 3 1 6 331 314 291 227 152 117 92 63 71 86 71 359 75 21 132 137 244 297 196 194 188 188 191 194 198 212 220 224 221 214
52 73 76 25 348 336 345 341 335 327 320 21 59 61 66 73 353 211 133 29 53 102 117 109 125 256 282 266 237 196 198 197 196 200 202 206 221 229
41 61 314 274 279 257 294 355 2 10 352 354 47 44 194 227 211 179 135 99 30 36 112 122 135 330 288 280 280 232 216 216 204 204 205 200 204 204
46 288 245 253 279 319 353 355 33 357 328 326 324 254 180 133 112 102 134 181 225 257 203 181 198 216 266 279 255 262 247 226 216 214 215 215 211 208
315 238 213 190 201 217 171 359 360 2 325 326 340 344 357 14 276 151 175 257 246 234 243 241 226 224 238 242 253 251 248 262 251 219 225 239 232 221
302 280 340 21 10 354 332 350 12 1 338 327 342 334 318 299 270 268 280 291 297 279 260 248 266 287 288 277 243 258 258 258 250 235 239 232 241 242
281 321 24 23 10 356 356 7 12 14 345 333 333 325 316 310 307 294 290 283 279 273 261 237 214 241 274 281 267 243 244 255 261 250 249 249 249 245
257 4 30 25 23 12 12 8 7 15 4 335 336 332 322 315 312 291 264 257 269 271 264 245 235 245 250 263 267 262 234 227 238 249 258 263 260 221
16 35 42 40 32 19 14 3 355 0 354 332 338 326 319 316 311 302 297 286 274 272 272 257 243 248 251 253 266 259 240 223 218 220 235 253 261 256
36 41 53 48 44 28 6 339 329 342 346 336 329 314 312 310 304 298 303 298 284 285 286 278 249 251 254 256 267 265 253 235 240 237 231 225 228 242
97 76 77 73 61 32 345 320 320 340 346 333 324 322 325 320 311 304 299 303 303 304 308 310 305 284 276 272 277 277 269 261 247 240 246 236 234 242